Home   Weather   Qyzylorda   Past weeks

Flag for Kazakhstan Past Weather in Qyzylorda, Kazakhstan — Yesterday and Last 2 Weeks

Now
90 °F

Passing clouds.


Feels Like: 86 °F
Forecast: 82 / 105 °F
Wind: 6 mph from North

Location: Kzyl-Orda

Current Time: Jul 24, 2017 at 11:07:13 pm

Latest Report: Jul 24, 2017 at 10:30 pm


Visibility: N/A

Pressure: 29.65 "Hg

Humidity: 24%

Dew Point: 48 °F

Location of QyzylordaLocation

Past Weather in Qyzylorda — Graph

°F

Qyzylorda Temperature Yesterday

Maximum temperature yesterday: 102 °F (at 3:30 pm)
Minimum temperature yesterday: 68 °F (at 6:30 am)
Average temperature yesterday: 87 °F

High & Low Weather Summary for the Past Weeks

 TemperatureHumidityPressure
High108 °F (Jul 24, 3:30 pm)83% (Jul 12, 3:00 am)30.01 "Hg (Jul 12, 3:00 am)
Low55 °F (Jul 14, 5:30 am)10% (Jul 21, 4:30 pm)29.62 "Hg (Jul 13, 5:30 am)
Average79 °F34%29.85 "Hg
* Reported Jul 9 10:00 pm — Jul 24 10:00 pm, Qyzylorda. Weather by CustomWeather, © 2017

Note: Actual official high and low records may vary slightly from our data, if they occured in-between our weather recording intervals... More about our weather records

Advertising

Qyzylorda Weather History for the Previous 24 Hours

Scroll right to see more
 ConditionsComfort  
Time TempWeatherWind HumidityBarometerVisibility
10:00 pm
Mon, Jul 24
93 °FPartly sunny.8 mph21%29.65 "HgN/A
9:30 pm95 °FPartly sunny.15 mph20%29.65 "HgN/A
9:00 pm97 °FPartly sunny.17 mph19%29.65 "HgN/A
8:30 pm99 °FPartly sunny.17 mph19%29.62 "HgN/A
8:00 pm104 °FSunny.8 mph16%29.62 "Hg10 mi
7:30 pm104 °FSunny.8 mph15%29.62 "Hg10 mi
7:00 pm106 °FSunny.8 mph13%29.62 "Hg10 mi
6:30 pm106 °FPassing clouds.6 mph12%29.62 "HgN/A
6:00 pm106 °FSunny.10 mph12%29.62 "Hg10 mi
5:30 pm108 °FPassing clouds.6 mph12%29.62 "HgN/A
5:00 pm108 °FPassing clouds.6 mph13%29.65 "HgN/A
4:30 pm106 °FSunny.3 mph12%29.65 "Hg10 mi
4:00 pm108 °FPassing clouds.3 mph12%29.65 "HgN/A
3:30 pm108 °FPassing clouds.3 mph12%29.65 "HgN/A
3:00 pm106 °FPassing clouds.6 mph12%29.68 "HgN/A
2:30 pm106 °FPassing clouds.6 mph11%29.68 "HgN/A
2:00 pm106 °FPassing clouds.6 mph12%29.68 "HgN/A
1:30 pm106 °FPassing clouds.3 mph12%29.68 "HgN/A
1:00 pm104 °FPassing clouds.3 mph12%29.71 "HgN/A
12:30 pm104 °FPassing clouds.6 mph12%29.71 "HgN/A
12:00 pm100 °FPassing clouds.3 mph14%29.71 "HgN/A
11:30 am100 °FPassing clouds.6 mph14%29.71 "HgN/A
10:30 am97 °FPassing clouds.6 mph19%29.71 "HgN/A
10:00 am93 °FPassing clouds.6 mph23%29.74 "HgN/A
9:30 am91 °FSunny.6 mph24%29.74 "Hg10 mi
9:00 am88 °FPassing clouds.3 mph25%29.74 "HgN/A
8:30 am86 °FPassing clouds.3 mph27%29.74 "HgN/A
8:00 am79 °FSunny.1 mph34%29.74 "Hg10 mi
7:30 am77 °FPassing clouds.3 mph36%29.74 "HgN/A
7:00 am72 °FClear.1 mph50%29.74 "Hg10 mi
6:30 am72 °FClear.3 mph50%29.71 "Hg10 mi
5:30 am72 °FClear.1 mph47%29.71 "Hg10 mi
5:00 am73 °FClear.3 mph44%29.71 "Hg10 mi
4:00 am75 °FClear.3 mph44%29.71 "Hg10 mi
3:00 am75 °FClear.3 mph41%29.71 "Hg10 mi
2:00 am79 °FClear.3 mph34%29.71 "Hg10 mi
1:00 am82 °FClear.6 mph32%29.74 "Hg10 mi
12:00 am84 °FClear.8 mph29%29.74 "Hg10 mi
11:00 pm
Sun, Jul 23
86 °FClear.6 mph31%29.74 "Hg10 mi
Weather by CustomWeather, © 2017

See weather overviewHow to use our weather pages